Flag for Germany Weather past 2 weeks in Magdeburg, Saxony-Anhalt, Germany

Now
62 °F

Overcast.


Feels Like: 62 °F
Forecast: 47 / 76 °F
Wind: 3 mph from West

Location: Magdeburg

Current Time: Jul 31, 2015 at 1:40:18 PM

Latest Report: Jul 31, 2015 at 1:00 PM


Visibility: 37 mi

Pressure: 30.11 "Hg

Humidity: 51%

Dew point: 44 °F

Location of MagdeburgLocation

Historic Weather in Magdeburg — Graph

°F

Magdeburg temperature yesterday

Maximum temperature yesterday: 69 °F (at 4:00 PM)
Minimum temperature yesterday: 55 °F (at 7:00 AM)
Average temperature yesterday: 61 °F

Past Weeks' High & Low Weather Summary

 TemperatureHumidityPressure
High90 °F (Jul 17, 6:00 PM)97% (Jul 19, 10:00 AM)30.11 "Hg (Jul 19, 10:00 AM)
Low51 °F (Jul 31, 4:00 AM)36% (Jul 18, 7:00 PM)29.54 "Hg (Jul 25, 2:00 PM)
Average67 °F66%29.85 "Hg
* Reported Jul 16 12:00 Noon — Jul 31 12:00 Noon, Magdeburg, Weather by CustomWeather, © 2015

Note: Actual official high and low records may vary slightly from our data, if they occured in-between our weather recording intervals... More about our weather records

Advertising

Magdeburg weather history for previous 24 hours

 ConditionsComfort  
Time TempWeatherWind HumidityBarometerVisibility
12:00 PM
Fri, Jul 31
60 °FOvercast.2 mph55%30.11 "Hg37 mi
10:00 AM60 °FScattered clouds.5 mph61%30.11 "Hg37 mi
9:00 AM57 °FScattered clouds.3 mph71%30.10 "Hg37 mi
8:00 AM54 °FPassing clouds.5 mph78%30.10 "Hg37 mi
7:00 AM51 °FSunny.2 mph87%30.08 "Hg37 mi
4:00 AM51 °FPassing clouds.2 mph81%30.05 "Hg28 mi
3:00 AM52 °FClear.2 mph79%30.04 "Hg28 mi
2:00 AM53 °FPassing clouds.2 mph76%30.04 "Hg28 mi
1:00 AM55 °FOvercast.2 mph75%30.02 "Hg34 mi
10:00 PM
Thu, Jul 30
60 °FOvercast.3 mph67%29.98 "Hg37 mi
9:00 PM61 °FScattered clouds.5 mph61%29.96 "Hg31 mi
8:00 PM64 °FPartly sunny.5 mph55%29.94 "Hg31 mi
7:00 PM65 °FScattered clouds.7 mph50%29.92 "Hg37 mi
6:00 PM64 °FPartly sunny.8 mph53%29.92 "Hg37 mi
4:00 PM69 °FScattered clouds.8 mph42%29.89 "Hg31 mi
3:00 PM65 °FScattered clouds.7 mph49%29.90 "Hg31 mi
2:00 PM66 °FPartly sunny.7 mph47%29.89 "Hg31 mi
1:00 PM63 °FOvercast.7 mph53%29.89 "Hg31 mi
Weather by CustomWeather, © 2015

See weather overviewHow to use our weather pages